Powrót do katalogu

IRIDIUM 33 DEB

AktywnyPO
NORAD 35484·DEBRIS·🇺🇸 United States

Wystrzelony Sep 14, 1997 z Baikonur Cosmodrome

Loading…

Następne Przeloty (najbliższe 24 godziny)

TLE

ŚwieżeSource: Space-Track

Epoka: Sep 12, 2026, 04:32 UTC

1 35484U 97051QE  26255.18948362  .00047429  00000-0  19573-2 0  9990
2 35484  86.3412 221.8375 0012204 161.4879 198.6812 15.23778202661468

Śledź IRIDIUM 33 DEB w czasie rzeczywistym z AllMySat

Download on the App Store